www.pogodaiklimat.ru

Погода и климат >> Архив погоды >> Южная Африка >> Коматидрааи


ПОГОДА в Коматидрааи

  • Прогноз погоды в Коматидрааи
  • Монитор погоды в Коматидрааи

АРХИВ ПОГОДЫ в Коматидрааи

Время (UTC), дата Ветер
(напр.,м/с)
 
Видим.   Явления Облачность Т
(С)
Тd
(С)
f
(%)
Тe
(С)
Тes
(С)
Комфортность P
(гПа)
Po
(гПа)
Тmin
(С)
Tmax
(С)
R
(мм)
R24
(мм)
S
(см)
09 19.08 С 3 н/о н/о +26.2 +12.8 43 +28 +28 жарко 999.1 +12.9 +26.2
12 19.08 С 3 н/о н/о +32.7 +10.5 26 +32 +32 жарко 995.7 +12.9 +32.8
15 19.08 С 2 н/о н/о +31.2 +12.4 32 +32 +32 жарко 994.9 +31.2 +33.6
18 19.08 ЮВ 6 н/о н/о +22.5 +16.1 67 +27 +27 душно 1000.3 +22.5 +33.6
21 19.08 ЮВ 5 н/о н/о +20.4 +15.4 73 +23 +23 комфорт 1003.1 +20.3 +33.6
00 20.08 ЮВ 5 н/о н/о +20.3 +13.6 65 +22 +22 комфорт 1003.9 +20.0 +33.6
03 20.08 Ю 3 н/о н/о +19.4 +12.0 62 +21 +21 комфорт 1004.9 +19.4 +33.6
06 20.08 Ю 4 н/о н/о +19.3 +12.1 63 +21 +21 комфорт 1007.3 +18.8
09 20.08 Ю 5 н/о н/о +23.2 +11.4 47 +25 +25 комфорт 1007.4 +18.8 +23.2
12 20.08 Ю 3 н/о н/о +22.4 +11.3 49 +25 +25 комфорт 1006.8 +18.8 +23.5
15 20.08 В 1 н/о н/о +22.7 +12.5 53 +25 +25 комфорт 1006.6 +22.5 +23.5
18 20.08 В 1 н/о н/о +18.1 +11.5 65 +19 +19 1008.6 +18.1 +23.5
21 20.08 Ю 2 н/о н/о +16.7 +11.9 73 +17 +17 1009.5 +16.4 +23.5
00 21.08 ЮЗ 2 н/о н/о +14.8 +11.7 82 +14 +14 1009.8 +14.8 +23.5
03 21.08 ЮЗ 3 н/о н/о +13.4 +11.1 86 +12 +12 1009.1 +13.4 +23.5
06 21.08 ЮЗ 3 н/о н/о +15.9 +11.7 76 +15 +15 1011.0 +13.0
09 21.08 Ю 4 н/о н/о +23.4 +11.6 47 +26 +26 жарко 1010.2 +13.0 +23.4
12 21.08 ЮВ 2 н/о н/о +24.7 +10.4 41 +26 +26 жарко 1007.9 +13.0 +25.7
15 21.08 В 1 н/о н/о +23.4 +12.2 49 +26 +26 жарко 1007.8 +23.4 +25.7
18 21.08 штиль 0 н/о н/о +18.0 +11.6 66 +18 +18 1008.6 +18.0 +25.7
21 21.08 ЮЗ 2 н/о н/о +14.8 +11.4 80 +15 +15 1009.1 +14.8 +25.7
00 22.08 штиль 0 н/о н/о +12.8 +10.0 83 +12 +12 1008.2 +12.8 +25.7
03 22.08 штиль 0 н/о н/о +11.7 +9.7 88 +11 +11 1007.3 +11.6 +25.7
06 22.08 штиль 0 н/о н/о +13.4 +11.9 91 +13 +13 1008.3 +10.9
09 22.08 СВ 1 н/о н/о +22.5 +11.7 50 +25 +25 комфорт 1007.2 +10.9 +22.8
12 22.08 С 2 н/о н/о +26.3 +11.0 38 +27 +27 жарко 1003.9 +10.9 +26.3
15 22.08 СВ 2 н/о н/о +25.4 +11.4 42 +27 +27 жарко 1003.1 +25.4 +27.2
18 22.08 СВ 2 н/о н/о +19.3 +11.2 59 +21 +21 комфорт 1004.5 +19.2 +27.2
21 22.08 З 1 н/о н/о +16.3 +12.3 77 +17 +17 1005.1 +16.3 +27.2
00 23.08 штиль 0 н/о н/о +13.4 +11.3 87 +13 +13 1004.3 +13.0 +27.2
03 23.08 СВ 1 н/о н/о +11.5 +9.4 87 +11 +11 1004.4 +11.3 +27.2
06 23.08 СВ 2 н/о н/о +13.9 +11.4 85 +14 +14 1005.7 +10.5
09 23.08 С 2 н/о н/о +24.6 +13.0 48 +27 +27 жарко 1005.1 +10.5 +24.7
09 24.08 СВ 3 н/о н/о +24.1 +13.8 53 +26 +26 жарко 1006.2 +9.6 +24.1
12 24.08 С 2 н/о н/о +28.2 +11.1 35 +29 +29 жарко 1002.6 +9.6 +28.7
18 24.08 В 1 н/о н/о +20.6 +14.5 68 +24 +24 комфорт 1002.9 +20.6 +29.8
21 24.08 С 1 н/о н/о +17.4 +14.1 81 +18 +18 1003.3 +17.2 +29.8
00 25.08 штиль 0 н/о н/о +14.1 +11.6 85 +14 +14 1001.5 +14.1 +29.8
03 25.08 С 2 н/о н/о +12.3 +10.5 89 +12 +12 1000.5 +12.3 +29.8
06 25.08 С 2 н/о н/о +15.4 +11.6 78 +15 +15 1001.8 +11.2
09 25.08 С 4 н/о н/о +28.7 +12.8 38 +30 +30 жарко 1000.3 +11.2 +28.7
12 25.08 С 5 н/о н/о +34.0 +11.0 25 +34 +34 очень
жарко
996.1 +11.2 +34.0
15 25.08 С 4 н/о н/о +31.3 +9.2 25 +30 +30 жарко 995.4 +31.3 +34.0
18 25.08 С 3 н/о н/о +22.4 +9.0 42 +24 +24 комфорт 996.0 +22.4 +34.0

 

Местоположение метеостанции Коматидрааи (Южная Африка): широта -25.51 долгота 31.90 высота над уровнем моря 183 м.

В архиве по умолчанию представлена погода в Коматидрааи за последнюю неделю. Архивные данные за месяц целиком и за предыдущие месяцы, начиная с января 2011 года, Вы можете получить, выбрав интересующий диапазон дат из раскрывающегося списка и нажав кнопку "Ввод!".


*Определитесь, кто Вы:
робот инопланетянин человек

Внимание! Время в таблицах - всемирное. Для получения местного времени необходимо прибавить поправку, которая равна 2 ч.

Смотрите также архив погоды в соседних городах и на ближайших метеорологических станциях:

Погода в Майиване (Свазиленд) (58 км)
Погода в Скукузе (Южная Африка) (66 км)
Погода в Мапуту (Мозамбик) (81 км)
Погода в Пиггс-Пике (Свазиленд) (83 км)
Погода в Чангалане (Мозамбик) (90 км)
Погода в Мбомбеле (Южная Африка) (98 км)
Погода в Ситеки (Свазиленд) (102 км)
Погода в Граскопе (Южная Африка) (124 км)
Погода в Граскоп-Скуле (Южная Африка) (126 км)
Погода в Манзини (Свазиленд) (128 км)

Пояснения к столбцам:

Ветер - указаны скорость ветра в м/с - средняя за 10 мин, порывы в срок и между сроками (в фигурных скобках) и направление, откуда дует ветер: С - северный, СВ - северо-восточный, В - восточный, ЮВ - юго-восточный, Ю - южный, ЮЗ - юго-западный, З - западный, СЗ - северо-западный.
Видимость - горизонтальная дальность видимости в метрах или километрах. При видимости от 1 до 10 км при отсутствии осадков обычно наблюдается дымка, при ухудшении видимости до 1 км и менее - туман. В сухую погоду видимость может ухудшаться дымом, пылью или мглою.
Явления - указаны атмосферные явления, наблюдавшиеся в срок или в последний час перед сроком; фигурными скобками обозначены явления, наблюдавшиеся между сроками (за 1-3 часа до срока); квадратными скобками обозначены град или гололедные отложения с указанием их диаметра в мм.
Облачность - указаны через наклонную черту общая и нижняя облачность в баллах и высота нижней границы облаков в метрах; квадратными скобками обозначены формы облаков: Ci - перистые, Cs - перисто-слоистые, Cc - перисто-кучевые, Ac - высококучевые, As - высокослоистые, Sc - слоисто-кучевые, Ns - слоисто-дождевые, Cu - кучевые, Cb - кучево-дождевые. Подробнее классификацию облаков см. в Атласе облаков (PDF).
T - Температура воздуха - температура, измеренная на высоте 2 м над землей.
Td - Температура точки росы - температура, при понижении до которой содержащийся в воздухе водяной пар достигнет насыщения.
f - Относительная влажность воздуха - влажноcть воздуха, измеренная на высоте 2 м над землей.
Te - Эффективная температура - температура, которую ощущает одетый по сезону человек в тени. Характеристика душности погоды. При расчете учитывается влияние влажности воздуха и скорости ветра на теплоощущения человека.
Tes - Эффективная температура на солнце - температура, которую ощущает человек, с поправкой на солнечный нагрев. Характеристика знойности погоды. Зависит от высоты солнца над горизонтом, облачности и скорости ветра. Ночью, в пасмурную погоду, а также при ветре 12 м/с и более поправка равна нулю.
P - Атмосферное давление - приведенное к уровню моря атмосферное давление.
Po - Атмосферное давление - измеренное на уровне метеостанции атмосферное давление.
Tmin - Минимальная температура - минимум температуры воздуха на высоте 2 м над землей.
Tmax - Максимальная температура - максимум температуры воздуха на высоте 2 м над землей.
R - Количество осадков - Количество выпавших осадков за период времени, мм. При наведении курсора мыши на число - период времени, за который выпало указанное количество осадков.
R24 - Количество осадков - Количество выпавших осадков за 24 часа, мм.
S - Снежный покров - Высота снежного покрова, см. При наведении курсора мыши на число - состояние снежного покрова и степень покрытия местности в баллах.